| time (UTC) | temp F | wind direction | speed MPH | gust MPH | rain 1hr in | rain 24hr in | rain mn in | humidity % | barometer mb |
| 20260510094531 | 55 | 217 | 0.0 | 0.0 | 0.00 | 0.00 | 0.00 | 92 | 1013.2 |
| 20260510093028 | 55 | 217 | 0.0 | 0.0 | 0.00 | 0.00 | 0.00 | 92 | 1013.2 |
| 20260510091546 | 55 | 217 | 0.0 | 1.0 | 0.00 | 0.00 | 0.00 | 92 | 1013.1 |
| 20260510090025 | 56 | 217 | 0.0 | 0.0 | 0.00 | 0.00 | 0.00 | 92 | 1012.8 |
| 20260510084525 | 56 | 217 | 0.0 | 0.0 | 0.00 | 0.00 | 0.00 | 92 | 1012.5 |
| 20260510083021 | 57 | 217 | 0.0 | 0.0 | 0.00 | 0.00 | 0.00 | 92 | 1012.4 |
| 20260510081532 | 57 | 216 | 0.0 | 0.0 | 0.00 | 0.00 | 0.00 | 92 | 1012.2 |
| 20260510080020 | 57 | 216 | 0.0 | 0.0 | 0.00 | 0.00 | 0.00 | 92 | 1012.0 |
| 20260510074517 | 58 | 216 | 0.0 | 1.0 | 0.00 | 0.00 | 0.00 | 92 | 1011.9 |
| 20260510073024 | 58 | 216 | 0.0 | 3.0 | 0.00 | 0.00 | 0.00 | 92 | 1011.9 |
| 20260510071517 | 58 | 173 | 3.0 | 6.0 | 0.00 | 0.00 | 0.00 | 92 | 1011.9 |
| 20260510070021 | 58 | 220 | 0.0 | 0.0 | 0.00 | 0.00 | 0.00 | 92 | 1011.5 |
| 20260510064539 | 58 | 220 | 0.0 | 0.0 | 0.00 | 0.00 | 0.00 | 91 | 1011.8 |
| 20260510063017 | 58 | 220 | 0.0 | 0.0 | 0.00 | 0.00 | 0.00 | 91 | 1011.8 |
| 20260510061512 | 58 | 220 | 0.0 | 0.0 | 0.00 | 0.00 | 0.00 | 91 | 1011.9 |
| 20260510060023 | 59 | 220 | 0.0 | 0.0 | 0.00 | 0.00 | 0.00 | 90 | 1012.0 |
| 20260510054505 | 59 | 220 | 0.0 | 0.0 | 0.00 | 0.00 | 0.00 | 90 | 1012.3 |
| 20260510053002 | 60 | 220 | 0.0 | 0.0 | 0.00 | 0.00 | 0.00 | 90 | 1012.3 |
| 20260510051610 | 60 | 220 | 0.0 | 0.0 | 0.00 | 0.00 | 0.00 | 90 | 1012.5 |
| 20260510050117 | 60 | 220 | 0.0 | 0.0 | 0.00 | 0.00 | 0.00 | 89 | 1012.3 |
| 20260510044609 | 61 | 220 | 0.0 | 0.0 | 0.00 | 0.00 | 0.00 | 89 | 1012.3 |
| 20260510043056 | 61 | 220 | 0.0 | 0.0 | 0.00 | 0.00 | 0.00 | 89 | 1012.2 |
| 20260510041606 | 61 | 220 | 0.0 | 0.0 | 0.00 | 0.00 | 0.00 | 88 | 1012.3 |
| 20260510040053 | 62 | 220 | 0.0 | 0.0 | 0.00 | 0.00 | 0.00 | 88 | 1012.3 |
| 20260510034558 | 62 | 220 | 0.0 | 1.0 | 0.00 | 0.00 | 0.00 | 87 | 1012.2 |
| 20260510033051 | 62 | 220 | 0.0 | 1.0 | 0.00 | 0.00 | 0.00 | 86 | 1012.2 |
| 20260510031557 | 63 | 220 | 0.0 | 0.0 | 0.00 | 0.00 | 0.00 | 85 | 1012.1 |
| 20260510030057 | 63 | 220 | 0.0 | 1.0 | 0.00 | 0.00 | 0.00 | 85 | 1012.0 |
| 20260510024552 | 64 | 220 | 0.0 | 1.0 | 0.00 | 0.00 | 0.00 | 83 | 1011.9 |
| 20260510023048 | 65 | 219 | 0.0 | 2.0 | 0.00 | 0.00 | 0.00 | 82 | 1011.8 |
| 20260510021548 | 65 | 219 | 0.0 | 2.0 | 0.00 | 0.00 | 0.00 | 81 | 1011.7 |
| 20260510020048 | 66 | 215 | 0.0 | 4.0 | 0.00 | 0.00 | 0.00 | 80 | 1011.5 |
| 20260510014546 | 67 | 199 | 0.0 | 3.0 | 0.00 | 0.00 | 0.00 | 78 | 1011.1 |
| 20260510013052 | 67 | 180 | 2.0 | 5.0 | 0.00 | 0.00 | 0.00 | 77 | 1010.9 |
| 20260510011546 | 68 | 202 | 1.0 | 3.0 | 0.00 | 0.00 | 0.00 | 75 | 1010.6 |
| 20260510010045 | 69 | 202 | 1.0 | 6.0 | 0.00 | 0.00 | 0.00 | 74 | 1010.4 |
| 20260510004545 | 70 | 225 | 0.0 | 4.0 | 0.00 | 0.00 | 0.00 | 72 | 1010.2 |
| 20260510003053 | 71 | 247 | 0.0 | 3.0 | 0.00 | 0.00 | 0.00 | 70 | 1010.2 |
| 20260510001542 | 71 | 200 | 0.0 | 2.0 | 0.00 | 0.00 | 0.00 | 69 | 1010.2 |
| 20260510000042 | 72 | 208 | 0.0 | 6.0 | 0.00 | 0.00 | 0.00 | 68 | 1009.9 |
| 20260509234557 | 73 | 252 | 4.0 | 8.0 | 0.00 | 0.00 | 0.00 | 66 | 1009.6 |
| 20260509233046 | 73 | 211 | 4.0 | 11.0 | 0.00 | 0.00 | 0.00 | 64 | 1009.7 |
| 20260509231600 | 74 | 238 | 1.0 | 8.0 | 0.00 | 0.00 | 0.00 | 63 | 1009.3 |
| 20260509230040 | 74 | 166 | 2.0 | 15.0 | 0.00 | 0.00 | 0.00 | 62 | 1009.2 |
| 20260509224541 | 74 | 235 | 2.0 | 8.0 | 0.00 | 0.00 | 0.00 | 63 | 1009.2 |
| 20260509223039 | 75 | 194 | 1.0 | 6.0 | 0.00 | 0.00 | 0.00 | 63 | 1009.1 |
| 20260509221540 | 75 | 223 | 2.0 | 9.0 | 0.00 | 0.00 | 0.00 | 61 | 1009.3 |
| 20260509220039 | 76 | 171 | 3.0 | 12.0 | 0.00 | 0.00 | 0.00 | 60 | 1009.1 |
| 20260509214537 | 76 | 228 | 2.0 | 13.0 | 0.00 | 0.00 | 0.00 | 58 | 1009.1 |
| 20260509213036 | 77 | 194 | 2.0 | 8.0 | 0.00 | 0.00 | 0.00 | 58 | 1009.0 |
| 20260509211535 | 78 | 142 | 2.0 | 12.0 | 0.00 | 0.00 | 0.00 | 57 | 1008.7 |
| 20260509210038 | 78 | 260 | 4.0 | 11.0 | 0.00 | 0.00 | 0.00 | 56 | 1008.9 |
| 20260509204535 | 79 | 249 | 2.0 | 8.0 | 0.00 | 0.00 | 0.00 | 56 | 1008.8 |
| 20260509203036 | 78 | 219 | 1.0 | 8.0 | 0.00 | 0.00 | 0.00 | 58 | 1009.0 |
| 20260509201526 | 76 | 331 | 3.0 | 11.0 | 0.00 | 0.00 | 0.00 | 61 | 1009.0 |
| 20260509200025 | 75 | 108 | 5.0 | 8.0 | 0.00 | 0.00 | 0.00 | 62 | 1009.2 |
| 20260509194526 | 75 | 244 | 3.0 | 11.0 | 0.00 | 0.00 | 0.00 | 61 | 1009.4 |
| 20260509193022 | 75 | 119 | 2.0 | 7.0 | 0.00 | 0.00 | 0.00 | 62 | 1009.3 |
| 20260509191523 | 74 | 121 | 2.0 | 9.0 | 0.00 | 0.00 | 0.00 | 61 | 1009.6 |
| 20260509190021 | 75 | 152 | 3.0 | 8.0 | 0.00 | 0.00 | 0.00 | 60 | 1009.7 |
| 20260509184529 | 75 | 180 | 5.0 | 12.0 | 0.00 | 0.00 | 0.00 | 60 | 1009.8 |
| 20260509183028 | 76 | 225 | 6.0 | 11.0 | 0.00 | 0.00 | 0.00 | 55 | 1009.9 |
| 20260509181519 | 75 | 184 | 6.0 | 10.0 | 0.00 | 0.00 | 0.00 | 57 | 1010.4 |
| 20260509180019 | 76 | 294 | 5.0 | 13.0 | 0.00 | 0.00 | 0.00 | 55 | 1010.5 |
| 20260509174511 | 74 | 184 | 6.0 | 14.0 | 0.00 | 0.00 | 0.00 | 59 | 1010.5 |
| 20260509173016 | 74 | 277 | 3.0 | 9.0 | 0.00 | 0.00 | 0.00 | 59 | 1010.6 |
| 20260509171520 | 74 | 190 | 3.0 | 12.0 | 0.00 | 0.00 | 0.00 | 59 | 1010.8 |
| 20260509170008 | 73 | 159 | 5.0 | 18.0 | 0.00 | 0.00 | 0.00 | 59 | 1010.9 |
| 20260509164505 | 73 | 254 | 4.0 | 12.0 | 0.00 | 0.00 | 0.00 | 61 | 1011.3 |
| 20260509163002 | 73 | 129 | 6.0 | 13.0 | 0.00 | 0.00 | 0.00 | 61 | 1011.7 |
| 20260509161600 | 72 | 267 | 3.0 | 11.0 | 0.00 | 0.00 | 0.00 | 61 | 1011.6 |
| 20260509160059 | 72 | 170 | 5.0 | 10.0 | 0.00 | 0.00 | 0.00 | 62 | 1011.5 |
| 20260509154607 | 71 | 207 | 2.0 | 10.0 | 0.00 | 0.00 | 0.00 | 63 | 1011.5 |
| 20260509153054 | 70 | 152 | 6.0 | 13.0 | 0.00 | 0.00 | 0.00 | 63 | 1011.8 |
| 20260509151555 | 71 | 183 | 3.0 | 19.0 | 0.00 | 0.00 | 0.00 | 63 | 1011.9 |
| 20260509150106 | 71 | 272 | 5.0 | 14.0 | 0.00 | 0.00 | 0.00 | 64 | 1011.8 |
| 20260509144550 | 69 | 185 | 5.0 | 12.0 | 0.00 | 0.00 | 0.00 | 67 | 1012.2 |
| 20260509143048 | 68 | 207 | 5.0 | 10.0 | 0.00 | 0.00 | 0.00 | 70 | 1012.2 |
| 20260509141537 | 65 | 148 | 4.0 | 7.0 | 0.00 | 0.00 | 0.00 | 74 | 1012.4 |
| 20260509140032 | 63 | 175 | 2.0 | 6.0 | 0.00 | 0.00 | 0.00 | 77 | 1012.8 |
| 20260509134526 | 61 | 177 | 3.0 | 7.0 | 0.00 | 0.00 | 0.00 | 80 | 1013.1 |
| 20260509133024 | 59 | 319 | 3.0 | 7.0 | 0.00 | 0.00 | 0.00 | 84 | 1013.4 |
| 20260509131519 | 57 | 181 | 3.0 | 7.0 | 0.00 | 0.00 | 0.00 | 89 | 1013.7 |
| 20260509130016 | 55 | 117 | 2.0 | 4.0 | 0.00 | 0.00 | 0.00 | 92 | 1013.8 |
| 20260509124512 | 53 | 225 | 2.0 | 4.0 | 0.00 | 0.00 | 0.00 | 93 | 1013.5 |
| 20260509123006 | 51 | 10 | 0.0 | 2.0 | 0.00 | 0.00 | 0.00 | 94 | 1013.3 |
| 20260509121503 | 49 | 10 | 0.0 | 1.0 | 0.00 | 0.00 | 0.00 | 93 | 1013.5 |
| 20260509120107 | 47 | 10 | 0.0 | 0.0 | 0.00 | 0.00 | 0.00 | 93 | 1013.7 |
| 20260509114607 | 47 | 237 | 0.0 | 0.0 | 0.00 | 0.00 | 0.00 | 92 | 1013.6 |
| 20260509113107 | 46 | 10 | 0.0 | 0.0 | 0.00 | 0.00 | 0.00 | 92 | 1013.6 |
| 20260509111553 | 45 | 237 | 0.0 | 0.0 | 0.00 | 0.00 | 0.00 | 92 | 1013.5 |
| 20260509110050 | 45 | 10 | 0.0 | 0.0 | 0.00 | 0.00 | 0.00 | 91 | 1013.4 |
| 20260509104547 | 44 | 10 | 0.0 | 1.0 | 0.00 | 0.00 | 0.00 | 91 | 1013.2 |
| 20260509103044 | 45 | 10 | 0.0 | 0.0 | 0.00 | 0.00 | 0.00 | 90 | 1012.8 |
| 20260509101543 | 45 | 10 | 0.0 | 2.0 | 0.00 | 0.00 | 0.00 | 90 | 1012.7 |
| 20260509100042 | 45 | 10 | 0.0 | 0.0 | 0.00 | 0.01 | 0.00 | 90 | 1012.7 |